Precipitable_Water
0.65 0.62 0.62 0.60 0.59 0.59 0.59 0.62 0.64 0.66 0.66 0.67 0.66 0.66 0.65 0.63 0.60 0.57 0.46 0.58 0.62 0.68 0.71 0.72 0.91 1.04 1.07 0.96 0.81 0.77 0.79 0.81 0.92 1.00 0.95 1.16 1.15 1.32 1.50 1.25 1.35 1.53 1.49 1.55 1.42
0.67 0.65 0.62 0.59 0.58 0.58 0.57 0.56 0.57 0.59 0.61 0.63 0.64 0.64 0.64 0.65 0.49 0.41 0.58 0.65 0.60 0.65 0.54 0.63 0.83 0.95 0.86 0.89 0.72 0.82 0.81 0.80 1.00 1.08 1.01 1.10 1.15 1.19 1.36 1.26 1.39 1.55 1.68 1.48 1.36
0.68 0.65 0.63 0.61 0.59 0.57 0.56 0.56 0.56 0.55 0.56 0.56 0.56 0.58 0.59 0.62 0.44 0.43 0.66 0.63 0.64 0.62 0.57 0.81 0.80 0.78 0.65 0.68 0.73 0.74 0.66 0.92 1.18 1.01 1.01 1.11 1.19 1.26 1.34 1.32 1.56 1.41 1.59 1.42 1.38
0.66 0.66 0.65 0.63 0.61 0.59 0.59 0.58 0.57 0.55 0.55 0.53 0.52 0.52 0.53 0.46 0.30 0.51 0.68 0.63 0.60 0.57 0.56 0.67 0.65 0.59 0.55 0.55 0.81 0.69 0.87 0.87 1.04 1.03 1.04 1.09 1.19 1.17 1.28 1.23 1.49 1.50 1.59 1.30 1.27
0.64 0.63 0.63 0.63 0.62 0.60 0.59 0.59 0.59 0.58 0.56 0.54 0.52 0.48 0.39 0.31 0.30 0.53 0.54 0.54 0.53 0.53 0.51 0.55 0.54 0.50 0.43 0.49 0.79 0.68 0.71 0.76 0.98 1.00 1.05 1.14 1.19 1.24 1.17 1.31 1.38 1.44 1.46 1.29 1.23
0.67 0.64 0.61 0.60 0.60 0.59 0.58 0.59 0.60 0.59 0.58 0.55 0.54 0.47 0.27 0.17 0.46 0.53 0.44 0.40 0.44 0.49 0.51 0.55 0.50 0.48 0.42 0.49 0.63 0.72 0.62 0.61 0.98 1.04 1.11 1.02 1.17 1.15 1.21 1.37 1.31 1.30 1.31 1.27 1.25
0.74 0.70 0.65 0.61 0.59 0.56 0.56 0.55 0.57 0.59 0.58 0.55 0.55 0.44 0.27 0.21 0.44 0.54 0.49 0.38 0.46 0.49 0.47 0.52 0.51 0.43 0.44 0.45 0.67 0.68 0.66 0.76 0.99 1.01 1.03 1.17 1.00 1.07 1.29 1.37 1.35 1.34 1.26 1.30 1.29
0.82 0.78 0.74 0.67 0.61 0.55 0.53 0.52 0.53 0.56 0.55 0.55 0.54 0.43 0.18 0.33 0.39 0.40 0.50 0.45 0.46 0.52 0.52 0.56 0.53 0.45 0.39 0.47 0.53 0.55 0.59 0.65 0.86 0.97 1.13 1.05 0.74 1.13 1.32 1.29 1.26 1.37 1.36 1.39 1.34
0.83 0.83 0.81 0.78 0.69 0.60 0.51 0.49 0.51 0.55 0.56 0.55 0.43 0.45 0.21 0.43 0.32 0.37 0.51 0.48 0.42 0.50 0.53 0.50 0.44 0.36 0.38 0.41 0.46 0.59 0.51 0.63 0.69 1.01 1.01 0.99 0.79 1.10 1.26 1.13 1.22 1.20 1.29 1.33 1.27
0.76 0.80 0.80 0.80 0.77 0.67 0.55 0.51 0.51 0.53 0.55 0.59 0.50 0.41 0.51 0.38 0.34 0.33 0.50 0.45 0.42 0.41 0.42 0.40 0.35 0.28 0.43 0.43 0.40 0.51 0.57 0.59 0.57 0.82 0.89 0.89 0.91 1.08 1.20 1.25 1.22 1.18 1.22 1.26 1.26
0.72 0.73 0.76 0.78 0.80 0.73 0.57 0.47 0.42 0.45 0.52 0.35 0.39 0.36 0.43 0.48 0.36 0.43 0.44 0.40 0.40 0.37 0.31 0.36 0.29 0.25 0.38 0.43 0.50 0.54 0.40 0.37 0.64 0.75 0.85 0.86 0.96 1.16 1.27 1.24 1.20 1.15 1.28 1.27 1.30
0.71 0.71 0.73 0.79 0.81 0.77 0.63 0.34 0.52 0.49 0.35 0.47 0.46 0.45 0.48 0.50 0.35 0.46 0.44 0.31 0.31 0.28 0.34 0.32 0.31 0.38 0.40 0.42 0.43 0.40 0.35 0.44 0.64 0.74 0.83 0.80 0.89 1.19 1.18 1.34 1.28 1.24 1.17 1.29 1.33
0.73 0.70 0.74 0.82 0.88 0.76 0.51 0.37 0.52 0.48 0.31 0.31 0.43 0.40 0.45 0.44 0.43 0.46 0.49 0.41 0.32 0.28 0.27 0.26 0.33 0.41 0.41 0.36 0.36 0.38 0.43 0.51 0.58 0.69 0.80 0.80 0.72 0.79 1.02 1.10 1.17 1.33 1.33 1.29 1.34
0.66 0.66 0.70 0.80 0.76 0.78 0.60 0.59 0.45 0.50 0.27 0.28 0.34 0.45 0.43 0.46 0.41 0.53 0.56 0.49 0.38 0.32 0.32 0.29 0.35 0.35 0.36 0.35 0.34 0.35 0.51 0.53 0.63 0.64 0.56 0.80 0.52 0.76 0.89 0.93 1.10 1.12 1.35 1.29 1.29
0.64 0.67 0.70 0.80 0.80 0.72 0.73 0.68 0.55 0.50 0.23 0.38 0.45 0.55 0.49 0.39 0.47 0.48 0.58 0.52 0.35 0.35 0.37 0.30 0.32 0.33 0.30 0.30 0.36 0.38 0.47 0.44 0.61 0.58 0.64 0.70 0.60 0.69 0.88 0.80 0.88 1.04 1.14 1.19 1.40
0.67 0.68 0.75 0.77 0.78 0.73 0.74 0.66 0.55 0.35 0.30 0.41 0.48 0.47 0.43 0.43 0.46 0.52 0.52 0.52 0.42 0.38 0.38 0.33 0.37 0.35 0.33 0.33 0.36 0.43 0.43 0.49 0.63 0.64 0.52 0.58 0.65 0.56 0.72 0.78 0.80 0.76 0.91 1.20 1.30
0.70 0.73 0.77 0.87 0.69 0.72 0.63 0.52 0.33 0.35 0.49 0.47 0.47 0.47 0.38 0.39 0.44 0.47 0.44 0.40 0.31 0.28 0.28 0.32 0.31 0.35 0.36 0.29 0.33 0.39 0.41 0.40 0.45 0.47 0.43 0.58 0.57 0.64 0.82 0.82 0.82 0.86 1.01 1.15 1.28
0.73 0.79 0.78 0.79 0.86 0.76 0.60 0.47 0.36 0.48 0.44 0.53 0.53 0.50 0.43 0.39 0.43 0.46 0.42 0.36 0.39 0.36 0.31 0.28 0.26 0.35 0.36 0.31 0.29 0.36 0.39 0.41 0.37 0.38 0.42 0.58 0.50 0.61 0.84 0.96 0.91 0.89 0.97 1.14 1.21
0.75 0.86 0.80 0.73 0.71 0.73 0.52 0.44 0.45 0.49 0.47 0.43 0.40 0.42 0.44 0.46 0.45 0.46 0.43 0.37 0.38 0.39 0.33 0.31 0.29 0.38 0.35 0.34 0.32 0.30 0.33 0.45 0.41 0.42 0.45 0.52 0.66 0.80 0.92 0.83 0.80 0.79 0.93 1.03 1.18
0.69 0.78 0.78 0.74 0.69 0.65 0.49 0.47 0.50 0.52 0.48 0.44 0.35 0.40 0.40 0.47 0.46 0.42 0.43 0.46 0.48 0.47 0.46 0.39 0.31 0.36 0.34 0.36 0.35 0.32 0.39 0.31 0.36 0.27 0.31 0.43 0.50 0.57 0.73 0.69 0.83 0.77 0.87 0.98 1.11
0.89 0.70 0.65 0.72 0.60 0.53 0.42 0.48 0.49 0.51 0.45 0.37 0.37 0.37 0.42 0.48 0.54 0.49 0.51 0.54 0.56 0.51 0.51 0.45 0.39 0.36 0.40 0.36 0.32 0.32 0.35 0.36 0.37 0.34 0.27 0.27 0.42 0.64 0.59 0.63 0.75 0.84 0.92 0.98 1.01
0.89 0.68 0.76 0.68 0.38 0.47 0.43 0.48 0.47 0.44 0.42 0.37 0.39 0.40 0.40 0.45 0.44 0.48 0.55 0.59 0.66 0.61 0.53 0.50 0.43 0.34 0.35 0.42 0.41 0.38 0.36 0.41 0.38 0.37 0.40 0.41 0.41 0.64 0.69 0.72 0.88 0.98 0.97 1.00 1.09
0.61 0.73 0.78 0.56 0.47 0.50 0.59 0.59 0.58 0.48 0.43 0.42 0.44 0.46 0.47 0.45 0.42 0.46 0.50 0.58 0.63 0.61 0.56 0.56 0.46 0.36 0.34 0.41 0.53 0.47 0.49 0.54 0.54 0.52 0.43 0.40 0.44 0.75 0.81 0.85 0.95 1.05 1.28 0.97 1.01
0.82 0.66 0.66 0.65 0.60 0.51 0.58 0.54 0.50 0.59 0.53 0.52 0.44 0.46 0.43 0.42 0.46 0.45 0.49 0.55 0.59 0.57 0.58 0.60 0.51 0.43 0.36 0.43 0.52 0.46 0.51 0.53 0.54 0.44 0.46 0.54 0.62 0.74 0.71 0.74 0.91 1.01 1.25 1.08 1.10
0.78 0.63 0.70 0.57 0.56 0.55 0.56 0.50 0.39 0.43 0.52 0.59 0.56 0.55 0.52 0.46 0.44 0.48 0.58 0.60 0.65 0.61 0.54 0.50 0.40 0.45 0.47 0.50 0.53 0.54 0.55 0.56 0.54 0.53 0.48 0.53 0.58 0.69 0.78 0.84 0.79 0.90 1.04 0.85 0.98
0.53 0.54 0.65 0.56 0.61 0.52 0.47 0.47 0.50 0.57 0.57 0.53 0.53 0.58 0.59 0.58 0.60 0.52 0.55 0.60 0.58 0.70 0.62 0.55 0.43 0.46 0.42 0.48 0.49 0.51 0.57 0.57 0.59 0.61 0.58 0.62 0.60 0.83 0.83 0.77 0.76 0.84 0.83 0.80 0.95
0.79 0.76 0.65 0.52 0.53 0.52 0.52 0.53 0.52 0.53 0.57 0.56 0.51 0.52 0.53 0.61 0.62 0.60 0.60 0.60 0.63 0.65 0.63 0.62 0.57 0.52 0.39 0.50 0.50 0.43 0.55 0.56 0.59 0.67 0.70 0.55 0.68 0.79 0.80 0.79 0.77 0.85 0.89 0.91 0.99
Wind_Speed
4 3 1 1 1 2 3 3 4 4 4 4 3 3 3 3 4 4 4 5 3 4 2 1 3 1 3 4 3 3 5 4 5 6 7 8 5 7 3 1 1 6 3 5 8
6 5 3 1 1 1 2 2 3 3 3 4 4 4 4 3 4 6 6 5 4 3 3 4 4 5 6 7 4 3 4 6 5 4 7 6 5 5 3 3 4 4 9 8 8
6 6 5 3 2 1 0 1 1 2 3 4 4 4 4 4 4 5 5 9 6 4 4 5 8 10 7 8 8 7 6 6 5 6 9 5 3 4 1 3 8 3 5 6 9
5 5 5 4 3 2 1 1 1 2 3 4 4 4 4 4 2 1 3 7 7 5 4 4 4 6 6 8 5 6 8 8 4 7 7 5 4 3 4 5 7 7 10 5 9
5 5 4 3 3 2 2 2 2 3 3 4 4 4 4 5 8 4 2 5 6 5 5 6 7 7 10 9 6 6 7 8 6 5 6 3 3 3 3 3 6 8 8 8 9
6 6 5 5 5 4 4 4 4 5 5 5 4 4 5 6 4 5 4 4 7 7 5 7 7 10 11 9 10 7 10 8 7 6 6 5 3 4 4 5 6 7 9 12 13
7 7 7 7 7 7 7 7 7 7 6 6 6 6 7 9 4 5 4 6 8 7 7 7 8 10 10 10 8 9 10 8 6 10 8 3 5 6 5 6 8 8 9 14 12
8 8 8 8 9 9 9 9 9 8 7 6 6 7 8 9 10 9 8 6 7 9 9 10 12 9 9 9 11 10 9 7 10 7 7 5 8 5 6 7 9 9 8 13 11
10 10 10 9 9 9 9 10 9 8 7 6 6 7 8 8 10 11 9 9 8 9 9 9 8 8 9 10 11 10 7 10 7 8 8 7 7 8 8 7 9 8 10 12 11
13 13 13 12 11 11 10 9 8 8 8 8 9 8 9 9 9 11 9 10 9 8 9 8 7 7 7 6 7 5 8 9 9 9 9 10 9 8 8 8 9 9 11 14 12
16 16 15 15 14 12 10 8 7 7 10 10 8 8 6 6 7 9 9 8 8 8 8 9 7 8 11 11 13 8 10 12 5 8 8 9 7 13 8 10 9 9 10 14 13
16 15 14 14 14 13 12 11 10 8 11 13 14 13 11 8 7 7 8 7 9 9 9 9 11 10 10 12 10 11 10 7 8 13 9 7 8 5 6 12 9 9 13 16 14
15 14 13 12 11 10 11 14 13 12 10 11 13 12 9 9 9 10 9 8 9 9 10 11 12 12 16 11 10 9 11 9 10 8 7 10 7 8 10 9 11 15 12 15 18
15 13 11 10 7 4 5 6 11 9 9 10 8 11 14 11 12 13 14 9 9 12 12 10 13 14 9 10 11 10 8 9 10 6 8 9 9 7 6 9 13 12 19 14 17
14 12 9 6 5 4 3 3 4 4 5 4 6 6 8 12 4 9 13 11 12 13 10 12 13 11 10 12 10 11 9 8 4 5 12 10 7 7 5 6 8 15 14 16 17
13 9 5 3 5 5 3 1 2 2 5 4 2 5 9 11 11 7 8 9 11 13 13 13 13 10 9 11 11 9 6 4 5 7 6 6 5 6 3 5 4 5 10 13 16
10 5 2 3 2 2 3 3 2 1 2 4 3 3 7 7 11 9 8 8 7 8 9 11 12 11 10 9 10 9 6 4 6 7 5 5 6 5 5 5 7 4 8 12 12
7 2 1 4 2 3 5 4 4 3 7 1 3 6 2 9 9 12 9 7 10 10 11 11 11 13 13 11 9 8 8 6 7 9 12 4 5 5 7 6 6 9 10 13 12
4 2 2 1 5 5 6 6 2 8 5 5 6 5 6 7 10 9 11 9 10 12 10 8 11 13 9 8 7 10 9 10 11 11 3 3 3 7 3 6 5 1 2 7 12
2 1 1 3 6 6 6 4 4 6 6 5 5 4 5 9 10 10 11 12 11 10 14 12 10 7 5 8 8 9 8 8 6 6 6 7 7 7 6 5 3 2 3 8 9
1 1 3 3 5 4 4 5 10 4 4 5 7 9 8 6 8 15 12 9 8 8 7 11 9 11 9 9 8 8 10 7 6 5 6 8 10 8 7 7 4 2 6 7 8
2 0 3 4 3 3 4 5 6 8 8 7 7 10 10 11 8 7 9 12 13 9 8 6 9 10 12 10 10 9 7 10 8 11 9 9 11 6 3 7 9 6 6 7 9
3 1 2 4 3 5 7 10 6 7 7 8 10 9 11 11 11 10 7 9 13 12 10 9 7 7 9 8 8 10 7 7 9 6 6 10 9 4 3 1 4 5 6 5 10
1 1 3 4 4 7 8 6 8 8 7 8 8 10 13 13 13 13 15 14 11 11 10 11 13 12 13 12 11 11 11 12 8 8 9 5 3 5 9 10 7 1 4 2 8
4 3 3 5 6 8 8 10 12 12 13 9 8 10 13 12 14 11 12 14 15 14 14 13 16 18 19 17 14 11 13 15 16 11 13 11 14 16 20 15 10 7 9 6 12
5 6 8 11 10 10 10 11 11 11 11 12 14 16 14 10 10 14 14 13 15 14 12 14 15 16 19 20 21 20 18 17 15 17 18 17 17 14 7 10 10 13 14 10 12
8 9 9 11 10 12 9 11 13 15 13 15 16 15 14 13 16 17 18 20 22 20 17 15 12 12 14 15 18 19 17 18 16 15 15 20 19 13 16 14 17 12 13 12 12
Wind_Direction
28 9 334 301 277 260 252 251 250 249 246 247 247 246 250 259 261 217 210 200 202 207 197 202 169 254 293 286 301 300 328 315 343 311 314 316 307 321 299 301 232 282 208 159 150
35 32 30 10 309 281 262 251 245 242 244 248 248 246 251 266 251 237 223 212 196 188 219 222 257 276 286 278 297 348 310 291 291 322 319 314 318 314 237 286 328 56 140 151 161
33 35 38 43 44 46 276 240 247 253 255 254 252 249 252 263 258 242 234 211 213 226 248 259 283 289 291 300 247 296 300 306 291 329 323 301 303 295 227 271 188 190 205 178 172
19 22 27 32 34 31 15 317 285 278 276 266 258 252 249 231 215 86 203 205 217 234 247 258 282 289 295 310 278 298 291 289 301 327 329 307 282 291 279 248 215 226 189 206 189
356 354 354 353 350 339 318 299 290 291 288 275 262 253 237 226 233 251 253 211 217 229 239 252 283 288 307 307 274 290 292 299 274 298 313 297 308 280 290 245 204 201 219 220 184
337 331 323 316 307 299 291 288 287 286 283 274 262 251 236 238 226 222 241 227 223 225 242 256 281 297 303 282 311 288 308 292 268 271 303 292 265 265 261 252 231 243 233 214 191
327 321 313 305 298 289 283 280 281 281 280 271 259 252 246 234 224 231 242 233 224 226 242 261 294 299 296 295 283 290 288 290 282 286 275 285 283 271 246 229 245 252 241 187 191
322 319 313 307 300 291 283 277 274 273 272 266 257 256 252 238 243 249 243 234 235 239 246 276 296 303 279 284 291 289 280 297 294 284 259 273 278 259 250 252 245 242 211 190 196
312 310 307 305 302 297 286 277 269 266 262 258 256 258 257 255 236 238 235 232 237 241 259 274 302 288 287 281 291 297 251 268 291 270 260 263 272 255 247 254 249 232 198 195 199
304 300 296 294 295 293 287 274 261 262 257 256 258 267 257 261 237 230 234 233 229 239 259 271 285 278 278 276 280 285 291 283 276 267 261 259 256 237 242 236 240 233 209 201 201
303 296 291 287 285 285 277 259 259 265 256 244 246 247 280 248 219 222 220 230 229 245 258 263 269 266 259 265 281 273 298 284 300 312 271 283 284 252 262 261 241 226 221 206 205
307 300 293 289 282 276 263 244 252 285 276 247 249 247 262 236 216 217 214 222 230 242 251 270 256 261 272 276 281 300 290 279 283 291 274 271 297 284 244 276 253 259 232 216 216
312 304 295 290 290 277 255 244 251 284 273 267 238 239 245 209 229 228 212 228 241 244 258 255 265 269 262 279 292 279 286 270 288 288 292 277 284 298 273 283 254 246 243 227 212
315 305 296 289 281 271 260 260 240 263 274 264 229 245 239 234 260 241 221 231 250 254 254 261 267 267 281 276 279 282 306 317 294 286 299 290 287 299 266 271 244 231 230 230 208
318 308 292 263 259 255 300 263 221 249 286 177 207 231 230 219 261 232 214 237 253 254 264 269 263 265 269 269 271 271 311 314 339 334 319 298 298 291 272 284 261 243 224 223 206
322 313 290 235 232 237 253 279 190 244 269 195 191 238 224 222 244 238 208 247 250 262 274 273 268 269 274 273 259 272 301 303 357 349 335 277 281 301 256 261 284 261 218 213 207
328 313 251 213 210 217 205 177 175 205 321 173 245 197 219 216 233 194 225 239 247 256 260 273 261 259 270 282 271 245 250 293 327 326 314 345 336 272 288 280 240 257 222 220 211
337 332 207 210 217 179 171 158 174 276 304 264 184 192 227 225 224 231 225 253 243 249 270 270 277 257 260 245 255 240 234 242 271 289 303 305 272 286 282 287 258 260 253 217 211
355 90 85 128 179 161 158 170 213 337 356 337 332 224 242 236 236 232 225 245 255 239 249 276 285 310 218 240 236 248 259 261 285 286 310 266 320 296 128 44 303 253 159 180 185
49 96 112 114 154 162 171 209 295 316 321 293 296 297 312 271 238 237 240 254 264 257 245 262 288 292 254 221 244 224 258 307 290 300 301 283 289 256 264 285 309 144 131 147 178
60 110 126 133 151 175 204 240 302 350 350 305 286 289 302 325 253 258 264 290 281 263 262 258 251 267 301 216 238 261 251 280 274 257 279 297 284 271 256 290 186 216 176 176 176
7 226 174 167 174 190 218 286 293 303 305 286 280 273 279 283 286 278 265 255 262 281 263 281 250 248 248 262 263 247 251 272 290 287 283 294 277 271 262 309 252 246 195 180 176
309 225 178 192 234 269 287 299 304 292 300 304 295 296 294 285 282 276 277 265 246 262 247 268 271 276 267 257 287 252 261 288 294 295 280 305 281 213 216 141 264 253 231 197 186
263 293 221 223 263 283 301 310 314 329 299 301 295 301 289 282 279 273 272 278 250 241 250 255 260 249 241 258 267 265 267 274 283 275 277 303 333 262 235 241 255 174 264 256 199
253 275 278 272 285 303 300 302 298 298 300 309 295 292 304 292 273 276 285 281 284 255 255 248 258 258 260 263 272 267 270 278 262 267 257 265 274 290 280 253 249 239 198 212 214
275 282 281 275 284 297 290 287 297 318 313 303 308 301 297 306 291 281 279 275 256 276 289 262 265 266 264 261 263 267 263 266 268 266 272 261 260 291 281 246 242 239 236 236 210
292 285 272 273 282 288 300 302 302 307 296 303 307 301 291 301 297 288 276 267 262 262 267 266 270 272 268 270 269 264 258 262 262 268 269 259 243 266 279 278 266 251 248 233 220